NOAA 16 DEB, 41538

Orbit data source: Space-Track

NOAA 16 DEB, 41538 is space debris in SSO originally from a launch on Thu, 21 Sep 2000 UTC launched from the Air Force Western Test Range (AFWTR). Debris objects in space refer to the collection of defunct objects orbiting the Earth. Examples of debris include non-operational satellites, rocket bodies, and fragments generated from explosions, collisions, or faulty payload assembly.

Loading next visibility...
Identifier
41538, 2000-055NN
Orbit
SSO
Country
Flag of USUS
Related business
Manufacturer
Unknown
Mission
Spacecraft
Bus & Motor
Unknown
Mass
Unknown
Launch date (UTC)
2000-09-21 (25 years ago)
Launch vehicle
Unknown
Launch site
Air Force Western Test Range (AFWTR)
Object type
Payload
Rocket body
Debris
Shape & HBR
Unknown shape, 0.1 m
Radar Cross Section
Small (<0.1 m²)

Expand to show TLE details & history
Last TLE update: 2 days ago

TLE from 2 days ago
0 NOAA 16 DEB
1 41538U 00055NN  25292.76652050  .00007130  00000-0  35882-2 0  9991
2 41538  98.7514 292.0566 0043771 242.0631 117.6109 14.16186889498555
Epoch: 2025-10-19T18:23Z
TLE epoch observation values (Epoch: 2025-10-19T18:23:47.371Z)
Latitude
0.00004°
Longitude
-12.36926°
Altitude
855.936 km
Speed
7.417 km/s
True Right ascension
19h 28m 13s
True Declination
0° 00' 00"
Sunlit
Object was in daylight at epoch
Visualization orbit readout
Latitude
Unknown
Longitude
Unknown
Altitude
Unknown
Speed
Unknown
Apparent Right ascension
Unknown
Apparent Declination
Unknown
Sunlit
N/A
Visualization observer readout
Local Sidereal Time
12:45:48
Azimuth
Unknown
Elevation
Unknown
Doppler factor
Unknown
Orbital elements
Apogee altitude
867.018 km
Perigee altitude
803.868 km
Semi-major axis
7,213.58 km
Eccentricity
0.00438
Inclination
98.7514°
RAAN
292.0566°
Arg. of periapsis
242.0631°
True anomaly
118.05423°
Mean anomaly
117.6109°
Eccentric anomaly
117.83268°
Mean motion
3.54256 °/min
Orbital period
101.62 mins
BSTAR
0.0035882
Loading maneuver chart data...
Computing Atmospheric mass density...

Documentation

Showing up to 5 results
|